| time (UTC) | temp F | wind direction | speed MPH | gust MPH | rain 1hr in | rain 24hr in | rain mn in | humidity % | barometer mb |
| 20260507193145 | 71 | 301 | 4.0 | 5.0 | 0.00 | 0.00 | 0.00 | 31 | 1012.9 |
| 20260507192640 | 71 | 274 | 1.0 | 1.0 | 0.00 | 0.00 | 0.00 | 32 | 1012.8 |
| 20260507192138 | 72 | 337 | 4.0 | 5.0 | 0.00 | 0.00 | 0.00 | 31 | 1012.7 |
| 20260507191633 | 70 | 268 | 2.0 | 3.0 | 0.00 | 0.00 | 0.00 | 33 | 1012.7 |
| 20260507191130 | 69 | 246 | 10.0 | 14.0 | 0.00 | 0.00 | 0.00 | 33 | 1012.8 |
| 20260507190628 | 69 | 311 | 3.0 | 3.0 | 0.00 | 0.00 | 0.00 | 34 | 1012.7 |
| 20260507190127 | 69 | 275 | 2.0 | 3.0 | 0.00 | 0.00 | 0.00 | 33 | 1012.8 |
| 20260507185625 | 71 | 325 | 6.0 | 7.0 | 0.00 | 0.00 | 0.00 | 30 | 1012.9 |
| 20260507185121 | 71 | 283 | 4.0 | 7.0 | 0.00 | 0.00 | 0.00 | 32 | 1012.8 |
| 20260507184619 | 69 | 317 | 3.0 | 3.0 | 0.00 | 0.00 | 0.00 | 32 | 1012.9 |
| 20260507184116 | 68 | 278 | 4.0 | 5.0 | 0.00 | 0.00 | 0.00 | 33 | 1013.0 |
| 20260507183612 | 68 | 242 | 4.0 | 5.0 | 0.00 | 0.00 | 0.00 | 34 | 1012.9 |
| 20260507183109 | 69 | 334 | 5.0 | 6.0 | 0.00 | 0.00 | 0.00 | 31 | 1013.0 |
| 20260507182606 | 68 | 284 | 0.0 | 1.0 | 0.00 | 0.00 | 0.00 | 32 | 1013.0 |
| 20260507182102 | 68 | 325 | 8.0 | 9.0 | 0.00 | 0.00 | 0.00 | 32 | 1013.0 |
| 20260507181559 | 68 | 294 | 3.0 | 5.0 | 0.00 | 0.00 | 0.00 | 33 | 1013.0 |
| 20260507181055 | 69 | 305 | 4.0 | 6.0 | 0.00 | 0.00 | 0.00 | 31 | 1013.0 |
| 20260507180551 | 68 | 249 | 2.0 | 2.0 | 0.00 | 0.00 | 0.00 | 33 | 1013.1 |
| 20260507180049 | 68 | 334 | 3.0 | 3.0 | 0.00 | 0.00 | 0.00 | 33 | 1013.3 |
| 20260507175545 | 67 | 318 | 3.0 | 3.0 | 0.00 | 0.00 | 0.00 | 35 | 1013.3 |
| 20260507175042 | 66 | 248 | 2.0 | 2.0 | 0.00 | 0.00 | 0.00 | 35 | 1013.1 |
| 20260507174539 | 66 | 317 | 3.0 | 3.0 | 0.00 | 0.00 | 0.00 | 34 | 1013.3 |
| 20260507174037 | 67 | 315 | 2.0 | 2.0 | 0.00 | 0.00 | 0.00 | 36 | 1013.2 |
| 20260507173534 | 67 | 292 | 4.0 | 7.0 | 0.00 | 0.00 | 0.00 | 35 | 1013.4 |
| 20260507173031 | 66 | 228 | 2.0 | 2.0 | 0.00 | 0.00 | 0.00 | 35 | 1013.4 |
| 20260507172526 | 65 | 261 | 1.0 | 1.0 | 0.00 | 0.00 | 0.00 | 36 | 1013.4 |
| 20260507172024 | 64 | 288 | 2.0 | 2.0 | 0.00 | 0.00 | 0.00 | 36 | 1013.6 |
| 20260507171519 | 65 | 337 | 3.0 | 3.0 | 0.00 | 0.00 | 0.00 | 35 | 1013.8 |
| 20260507171017 | 67 | 338 | 4.0 | 5.0 | 0.00 | 0.00 | 0.00 | 34 | 1013.7 |
| 20260507170513 | 67 | 280 | 2.0 | 2.0 | 0.00 | 0.00 | 0.00 | 36 | 1013.7 |
| 20260507170010 | 68 | 280 | 3.0 | 7.0 | 0.00 | 0.00 | 0.00 | 34 | 1013.7 |
| 20260507165506 | 67 | 11 | 3.0 | 3.0 | 0.00 | 0.00 | 0.00 | 35 | 1013.6 |
| 20260507165003 | 67 | 292 | 4.0 | 7.0 | 0.00 | 0.00 | 0.00 | 35 | 1013.4 |
| 20260507164459 | 67 | 332 | 2.0 | 2.0 | 0.00 | 0.00 | 0.00 | 35 | 1013.4 |
| 20260507163956 | 66 | 195 | 2.0 | 2.0 | 0.00 | 0.00 | 0.00 | 34 | 1013.6 |
| 20260507163453 | 66 | 342 | 3.0 | 6.0 | 0.00 | 0.00 | 0.00 | 35 | 1013.8 |
| 20260507162950 | 65 | 258 | 2.0 | 3.0 | 0.00 | 0.00 | 0.00 | 37 | 1013.7 |
| 20260507162446 | 66 | 338 | 4.0 | 5.0 | 0.00 | 0.00 | 0.00 | 35 | 1013.6 |
| 20260507161943 | 65 | 227 | 3.0 | 3.0 | 0.00 | 0.00 | 0.00 | 37 | 1013.4 |
| 20260507161439 | 65 | 348 | 3.0 | 5.0 | 0.00 | 0.00 | 0.00 | 36 | 1013.4 |
| 20260507160936 | 65 | 220 | 2.0 | 2.0 | 0.00 | 0.00 | 0.00 | 36 | 1013.4 |
| 20260507160432 | 64 | 11 | 2.0 | 2.0 | 0.00 | 0.00 | 0.00 | 36 | 1013.4 |
| 20260507155927 | 63 | 292 | 1.0 | 2.0 | 0.00 | 0.00 | 0.00 | 37 | 1013.4 |
| 20260507155424 | 62 | 339 | 2.0 | 3.0 | 0.00 | 0.00 | 0.00 | 38 | 1013.7 |
| 20260507154921 | 61 | 274 | 2.0 | 3.0 | 0.00 | 0.00 | 0.00 | 39 | 1013.7 |
| 20260507154418 | 60 | 286 | 1.0 | 1.0 | 0.00 | 0.00 | 0.00 | 39 | 1013.6 |
| 20260507153915 | 61 | 282 | 3.0 | 5.0 | 0.00 | 0.00 | 0.00 | 39 | 1013.6 |
| 20260507153412 | 60 | 317 | 2.0 | 3.0 | 0.00 | 0.00 | 0.00 | 40 | 1013.7 |
| 20260507152908 | 60 | 237 | 3.0 | 3.0 | 0.00 | 0.00 | 0.00 | 40 | 1013.6 |
| 20260507152404 | 60 | 254 | 3.0 | 3.0 | 0.00 | 0.00 | 0.00 | 40 | 1013.6 |
| 20260507151900 | 59 | 279 | 3.0 | 3.0 | 0.00 | 0.00 | 0.00 | 40 | 1013.8 |
| 20260507151356 | 57 | 261 | 2.0 | 3.0 | 0.00 | 0.00 | 0.00 | 44 | 1013.8 |
| 20260507150854 | 56 | 290 | 1.0 | 2.0 | 0.00 | 0.00 | 0.00 | 45 | 1013.9 |
| 20260507150350 | 55 | 325 | 3.0 | 3.0 | 0.00 | 0.00 | 0.00 | 44 | 1013.9 |
| 20260507145847 | 55 | 348 | 3.0 | 6.0 | 0.00 | 0.00 | 0.00 | 44 | 1014.0 |
| 20260507145343 | 55 | 347 | 5.0 | 5.0 | 0.00 | 0.00 | 0.00 | 45 | 1014.0 |
| 20260507144840 | 55 | 340 | 3.0 | 3.0 | 0.00 | 0.00 | 0.00 | 46 | 1013.7 |
| 20260507144337 | 54 | 320 | 3.0 | 3.0 | 0.00 | 0.00 | 0.00 | 48 | 1013.7 |
| 20260507143834 | 53 | 321 | 2.0 | 2.0 | 0.00 | 0.00 | 0.00 | 49 | 1013.9 |
| 20260507143331 | 53 | 334 | 2.0 | 3.0 | 0.00 | 0.00 | 0.00 | 49 | 1013.8 |
| 20260507142827 | 52 | 332 | 2.0 | 2.0 | 0.00 | 0.00 | 0.00 | 51 | 1013.9 |
| 20260507142324 | 51 | 293 | 3.0 | 5.0 | 0.00 | 0.00 | 0.00 | 51 | 1013.9 |
| 20260507141821 | 51 | 328 | 3.0 | 3.0 | 0.00 | 0.00 | 0.00 | 51 | 1014.0 |
| 20260507141317 | 51 | 299 | 2.0 | 2.0 | 0.00 | 0.00 | 0.00 | 52 | 1013.8 |
| 20260507140814 | 50 | 268 | 0.0 | 0.0 | 0.00 | 0.00 | 0.00 | 54 | 1013.7 |
| 20260507140311 | 50 | 302 | 1.0 | 1.0 | 0.00 | 0.00 | 0.00 | 53 | 1013.7 |
| 20260507135808 | 50 | 292 | 1.0 | 2.0 | 0.00 | 0.00 | 0.00 | 54 | 1013.3 |
| 20260507135306 | 50 | 292 | 0.0 | 0.0 | 0.00 | 0.00 | 0.00 | 55 | 1013.4 |
| 20260507134802 | 50 | 300 | 1.0 | 2.0 | 0.00 | 0.00 | 0.00 | 56 | 1013.8 |
| 20260507134258 | 50 | 308 | 1.0 | 2.0 | 0.00 | 0.00 | 0.00 | 58 | 1013.4 |
| 20260507133754 | 49 | 312 | 0.0 | 0.0 | 0.00 | 0.00 | 0.00 | 56 | 1013.4 |
| 20260507133250 | 48 | 316 | 0.0 | 0.0 | 0.00 | 0.00 | 0.00 | 57 | 1013.3 |
| 20260507132748 | 48 | 322 | 0.0 | 1.0 | 0.00 | 0.00 | 0.00 | 56 | 1013.1 |
| 20260507132239 | 47 | 326 | 0.0 | 1.0 | 0.00 | 0.00 | 0.00 | 59 | 1013.2 |
| 20260507131736 | 47 | 328 | 0.0 | 0.0 | 0.00 | 0.00 | 0.00 | 60 | 1013.0 |
| 20260507131233 | 47 | 330 | 0.0 | 0.0 | 0.00 | 0.00 | 0.00 | 63 | 1013.1 |
| 20260507130730 | 46 | 331 | 1.0 | 2.0 | 0.00 | 0.00 | 0.00 | 62 | 1013.0 |
| 20260507130228 | 46 | 333 | 1.0 | 1.0 | 0.00 | 0.00 | 0.00 | 64 | 1013.1 |
| 20260507125726 | 46 | 334 | 1.0 | 1.0 | 0.00 | 0.00 | 0.00 | 65 | 1012.9 |
| 20260507125223 | 45 | 337 | 1.0 | 1.0 | 0.00 | 0.00 | 0.00 | 66 | 1012.8 |
| 20260507124720 | 44 | 340 | 0.0 | 0.0 | 0.00 | 0.00 | 0.00 | 69 | 1012.7 |
| 20260507124217 | 44 | 340 | 0.0 | 0.0 | 0.00 | 0.00 | 0.00 | 68 | 1012.6 |
| 20260507123715 | 44 | 341 | 0.0 | 0.0 | 0.00 | 0.00 | 0.00 | 66 | 1012.6 |
| 20260507123212 | 43 | 341 | 0.0 | 0.0 | 0.00 | 0.00 | 0.00 | 66 | 1012.6 |
| 20260507122708 | 43 | 341 | 0.0 | 0.0 | 0.00 | 0.00 | 0.00 | 67 | 1012.7 |
| 20260507122203 | 43 | 341 | 0.0 | 0.0 | 0.00 | 0.00 | 0.00 | 67 | 1012.3 |
| 20260507121659 | 43 | 345 | 0.0 | 0.0 | 0.00 | 0.00 | 0.00 | 64 | 1012.3 |
| 20260507121155 | 43 | 346 | 0.0 | 0.0 | 0.00 | 0.00 | 0.00 | 64 | 1012.3 |
| 20260507120652 | 43 | 3 | 0.0 | 0.0 | 0.00 | 0.00 | 0.00 | 63 | 1012.3 |
| 20260507120149 | 43 | 3 | 0.0 | 0.0 | 0.00 | 0.00 | 0.00 | 65 | 1012.3 |
| 20260507115645 | 43 | 6 | 0.0 | 0.0 | 0.00 | 0.00 | 0.00 | 64 | 1012.1 |
| 20260507115140 | 43 | 9 | 1.0 | 1.0 | 0.00 | 0.00 | 0.00 | 65 | 1012.1 |
| 20260507114636 | 44 | 10 | 0.0 | 1.0 | 0.00 | 0.00 | 0.00 | 65 | 1012.1 |
| 20260507114134 | 43 | 20 | 5.0 | 5.0 | 0.00 | 0.00 | 0.00 | 65 | 1012.1 |
| 20260507113631 | 43 | 29 | 0.0 | 0.0 | 0.00 | 0.00 | 0.00 | 62 | 1011.9 |
| 20260507113128 | 44 | 23 | 4.0 | 6.0 | 0.00 | 0.00 | 0.00 | 58 | 1012.0 |
| 20260507112626 | 44 | 339 | 0.0 | 0.0 | 0.00 | 0.00 | 0.00 | 59 | 1011.8 |
| 20260507112122 | 44 | 342 | 0.0 | 0.0 | 0.00 | 0.00 | 0.00 | 58 | 1011.8 |
| 20260507111620 | 43 | 343 | 2.0 | 2.0 | 0.00 | 0.00 | 0.00 | 59 | 1011.8 |
| 20260507111116 | 43 | 343 | 1.0 | 1.0 | 0.00 | 0.00 | 0.00 | 62 | 1011.7 |
| 20260507110612 | 42 | 343 | 0.0 | 0.0 | 0.00 | 0.00 | 0.00 | 63 | 1011.8 |
| 20260507110108 | 43 | 344 | 0.0 | 0.0 | 0.00 | 0.00 | 0.00 | 62 | 1011.9 |
| 20260507105605 | 43 | 343 | 2.0 | 2.0 | 0.00 | 0.00 | 0.00 | 62 | 1012.1 |
| 20260507105056 | 43 | 343 | 0.0 | 0.0 | 0.00 | 0.00 | 0.00 | 63 | 1011.9 |
| 20260507104554 | 43 | 343 | 0.0 | 0.0 | 0.00 | 0.00 | 0.00 | 62 | 1011.9 |
| 20260507104050 | 43 | 343 | 0.0 | 0.0 | 0.00 | 0.00 | 0.00 | 63 | 1012.0 |
| 20260507103546 | 43 | 344 | 0.0 | 0.0 | 0.00 | 0.00 | 0.00 | 65 | 1012.0 |
| 20260507103043 | 43 | 344 | 0.0 | 0.0 | 0.00 | 0.00 | 0.00 | 64 | 1011.9 |
| 20260507102539 | 44 | 344 | 0.0 | 0.0 | 0.00 | 0.00 | 0.00 | 62 | 1011.9 |
| 20260507102036 | 44 | 344 | 0.0 | 1.0 | 0.00 | 0.00 | 0.00 | 60 | 1011.8 |
| 20260507101531 | 45 | 344 | 0.0 | 0.0 | 0.00 | 0.00 | 0.00 | 59 | 1011.9 |
| 20260507101028 | 44 | 345 | 1.0 | 2.0 | 0.00 | 0.00 | 0.00 | 60 | 1011.8 |
| 20260507100525 | 44 | 345 | 0.0 | 0.0 | 0.00 | 0.00 | 0.00 | 62 | 1012.0 |
| 20260507100023 | 45 | 14 | 0.0 | 1.0 | 0.00 | 0.00 | 0.00 | 58 | 1011.8 |
| 20260507095521 | 44 | 17 | 3.0 | 3.0 | 0.00 | 0.00 | 0.00 | 60 | 1011.7 |
| 20260507095017 | 45 | 14 | 3.0 | 3.0 | 0.00 | 0.00 | 0.00 | 61 | 1012.0 |
| 20260507094514 | 46 | 18 | 5.0 | 5.0 | 0.00 | 0.00 | 0.00 | 58 | 1011.8 |
| 20260507094011 | 46 | 13 | 2.0 | 2.0 | 0.00 | 0.00 | 0.00 | 56 | 1011.6 |
| 20260507093508 | 47 | 13 | 2.0 | 2.0 | 0.00 | 0.00 | 0.00 | 54 | 1011.7 |
| 20260507093007 | 47 | 22 | 7.0 | 8.0 | 0.00 | 0.00 | 0.00 | 52 | 1011.5 |
| 20260507092503 | 47 | 19 | 4.0 | 5.0 | 0.00 | 0.00 | 0.00 | 51 | 1011.3 |
| 20260507092000 | 46 | 16 | 3.0 | 3.0 | 0.00 | 0.00 | 0.00 | 54 | 1010.9 |
| 20260507091456 | 46 | 24 | 4.0 | 5.0 | 0.00 | 0.00 | 0.00 | 56 | 1010.9 |
| 20260507090952 | 46 | 14 | 5.0 | 6.0 | 0.00 | 0.00 | 0.00 | 56 | 1010.9 |
| 20260507090448 | 46 | 29 | 3.0 | 3.0 | 0.00 | 0.00 | 0.00 | 55 | 1010.7 |
| 20260507085945 | 46 | 29 | 3.0 | 3.0 | 0.00 | 0.00 | 0.00 | 54 | 1010.8 |
| 20260507085442 | 46 | 8 | 3.0 | 3.0 | 0.00 | 0.00 | 0.00 | 57 | 1010.8 |
| 20260507084939 | 47 | 15 | 5.0 | 6.0 | 0.00 | 0.00 | 0.00 | 54 | 1010.8 |
| 20260507084436 | 47 | 56 | 0.0 | 0.0 | 0.00 | 0.00 | 0.00 | 54 | 1010.6 |
| 20260507083933 | 48 | 56 | 2.0 | 2.0 | 0.00 | 0.00 | 0.00 | 54 | 1010.6 |
| 20260507083429 | 49 | 49 | 2.0 | 2.0 | 0.00 | 0.00 | 0.00 | 52 | 1010.7 |
| 20260507082925 | 50 | 44 | 2.0 | 2.0 | 0.00 | 0.00 | 0.00 | 49 | 1010.6 |
| 20260507082421 | 51 | 43 | 2.0 | 2.0 | 0.00 | 0.00 | 0.00 | 47 | 1010.8 |
| 20260507081918 | 51 | 42 | 2.0 | 2.0 | 0.00 | 0.00 | 0.00 | 47 | 1010.6 |
| 20260507081414 | 50 | 12 | 4.0 | 5.0 | 0.00 | 0.00 | 0.00 | 48 | 1010.5 |
| 20260507080911 | 50 | 95 | 3.0 | 3.0 | 0.00 | 0.00 | 0.00 | 50 | 1010.3 |
| 20260507080408 | 51 | 115 | 6.0 | 7.0 | 0.00 | 0.00 | 0.00 | 48 | 1010.0 |
| 20260507075903 | 51 | 29 | 5.0 | 6.0 | 0.00 | 0.00 | 0.00 | 46 | 1010.4 |
| 20260507075359 | 52 | 1 | 5.0 | 6.0 | 0.00 | 0.00 | 0.00 | 47 | 1010.4 |
| 20260507074856 | 54 | 118 | 5.0 | 7.0 | 0.00 | 0.00 | 0.00 | 44 | 1009.8 |
| 20260507074353 | 53 | 128 | 8.0 | 10.0 | 0.00 | 0.00 | 0.00 | 44 | 1009.9 |
| 20260507073850 | 53 | 8 | 5.0 | 6.0 | 0.00 | 0.00 | 0.00 | 47 | 1010.3 |
| 20260507073347 | 53 | 96 | 5.0 | 6.0 | 0.00 | 0.00 | 0.00 | 45 | 1009.8 |
| 20260507072844 | 53 | 108 | 6.0 | 9.0 | 0.00 | 0.00 | 0.00 | 45 | 1010.0 |
| 20260507072341 | 54 | 159 | 9.0 | 10.0 | 0.00 | 0.00 | 0.00 | 43 | 1010.0 |
| 20260507071839 | 54 | 104 | 9.0 | 10.0 | 0.00 | 0.00 | 0.00 | 41 | 1009.9 |
| 20260507071336 | 54 | 66 | 6.0 | 8.0 | 0.00 | 0.00 | 0.00 | 42 | 1010.0 |
| 20260507070832 | 55 | 56 | 7.0 | 7.0 | 0.00 | 0.00 | 0.00 | 40 | 1009.9 |
| 20260507070329 | 55 | 36 | 5.0 | 6.0 | 0.00 | 0.00 | 0.00 | 41 | 1009.8 |
| 20260507065826 | 56 | 47 | 5.0 | 7.0 | 0.00 | 0.00 | 0.00 | 39 | 1009.6 |
| 20260507065323 | 56 | 66 | 9.0 | 11.0 | 0.00 | 0.00 | 0.00 | 36 | 1009.5 |
| 20260507064820 | 55 | 47 | 3.0 | 3.0 | 0.00 | 0.00 | 0.00 | 40 | 1009.7 |
| 20260507064318 | 56 | 25 | 5.0 | 6.0 | 0.00 | 0.00 | 0.00 | 40 | 1009.8 |
| 20260507063816 | 57 | 59 | 22.0 | 26.0 | 0.00 | 0.00 | 0.00 | 36 | 1009.3 |
| 20260507063313 | 56 | 26 | 15.0 | 18.0 | 0.00 | 0.00 | 0.00 | 38 | 1009.8 |
| 20260507062809 | 56 | 31 | 12.0 | 15.0 | 0.00 | 0.00 | 0.00 | 38 | 1009.9 |
| 20260507062306 | 57 | 26 | 6.0 | 8.0 | 0.00 | 0.00 | 0.00 | 41 | 1009.7 |
| 20260507061805 | 57 | 51 | 8.0 | 9.0 | 0.00 | 0.00 | 0.00 | 41 | 1009.7 |
| 20260507061302 | 58 | 35 | 6.0 | 7.0 | 0.00 | 0.00 | 0.00 | 46 | 1009.4 |
| 20260507060800 | 58 | 46 | 4.0 | 5.0 | 0.00 | 0.00 | 0.00 | 44 | 1009.0 |
| 20260507060256 | 58 | 23 | 6.0 | 7.0 | 0.00 | 0.00 | 0.00 | 44 | 1008.8 |
| 20260507055753 | 57 | 38 | 7.0 | 7.0 | 0.00 | 0.00 | 0.00 | 49 | 1008.8 |
| 20260507055248 | 57 | 290 | 3.0 | 3.0 | 0.00 | 0.00 | 0.00 | 48 | 1008.5 |
| 20260507054745 | 58 | 288 | 1.0 | 1.0 | 0.00 | 0.00 | 0.00 | 46 | 1008.4 |
| 20260507054242 | 57 | 288 | 2.0 | 3.0 | 0.00 | 0.00 | 0.00 | 45 | 1008.5 |
| 20260507053739 | 55 | 250 | 0.0 | 0.0 | 0.00 | 0.00 | 0.00 | 48 | 1008.3 |
| 20260507053236 | 56 | 250 | 0.0 | 0.0 | 0.00 | 0.00 | 0.00 | 46 | 1008.3 |
| 20260507052735 | 56 | 250 | 0.0 | 0.0 | 0.00 | 0.00 | 0.00 | 45 | 1008.2 |
| 20260507052231 | 56 | 251 | 0.0 | 0.0 | 0.00 | 0.00 | 0.00 | 45 | 1008.3 |
| 20260507051730 | 56 | 251 | 0.0 | 0.0 | 0.00 | 0.00 | 0.00 | 44 | 1008.1 |
| 20260507051226 | 56 | 250 | 0.0 | 0.0 | 0.00 | 0.00 | 0.00 | 42 | 1008.4 |
| 20260507050722 | 57 | 250 | 0.0 | 0.0 | 0.00 | 0.00 | 0.00 | 41 | 1008.3 |
| 20260507050220 | 57 | 251 | 0.0 | 0.0 | 0.00 | 0.00 | 0.00 | 39 | 1008.4 |
| 20260507045716 | 58 | 250 | 0.0 | 0.0 | 0.00 | 0.00 | 0.00 | 39 | 1008.2 |
| 20260507045212 | 58 | 223 | 0.0 | 0.0 | 0.00 | 0.00 | 0.00 | 38 | 1008.5 |
| 20260507044710 | 59 | 210 | 0.0 | 0.0 | 0.00 | 0.00 | 0.00 | 37 | 1008.2 |
| 20260507044206 | 60 | 209 | 0.0 | 0.0 | 0.00 | 0.00 | 0.00 | 37 | 1008.3 |
| 20260507043703 | 60 | 178 | 0.0 | 0.0 | 0.00 | 0.00 | 0.00 | 38 | 1008.4 |
| 20260507043200 | 61 | 173 | 1.0 | 1.0 | 0.00 | 0.00 | 0.00 | 37 | 1008.1 |
| 20260507042656 | 60 | 156 | 0.0 | 0.0 | 0.00 | 0.00 | 0.00 | 37 | 1008.3 |
| 20260507042151 | 60 | 141 | 0.0 | 0.0 | 0.00 | 0.00 | 0.00 | 37 | 1008.3 |
| 20260507041648 | 61 | 140 | 0.0 | 0.0 | 0.00 | 0.00 | 0.00 | 38 | 1008.4 |
| 20260507041144 | 62 | 132 | 0.0 | 0.0 | 0.00 | 0.00 | 0.00 | 36 | 1008.5 |
| 20260507040642 | 63 | 104 | 0.0 | 0.0 | 0.00 | 0.00 | 0.00 | 36 | 1008.5 |
| 20260507040138 | 63 | 96 | 0.0 | 0.0 | 0.00 | 0.00 | 0.00 | 34 | 1008.5 |
| 20260507035634 | 64 | 100 | 1.0 | 1.0 | 0.00 | 0.00 | 0.00 | 33 | 1008.5 |
| 20260507035130 | 65 | 63 | 2.0 | 2.0 | 0.00 | 0.00 | 0.00 | 31 | 1008.5 |
| 20260507034627 | 66 | 244 | 0.0 | 1.0 | 0.00 | 0.00 | 0.00 | 29 | 1008.6 |
| 20260507034125 | 66 | 258 | 1.0 | 1.0 | 0.00 | 0.00 | 0.00 | 30 | 1008.3 |
| 20260507033623 | 65 | 256 | 0.0 | 0.0 | 0.00 | 0.00 | 0.00 | 31 | 1008.6 |
| 20260507033120 | 66 | 327 | 0.0 | 0.0 | 0.00 | 0.00 | 0.00 | 32 | 1008.6 |
| 20260507032617 | 66 | 55 | 5.0 | 7.0 | 0.00 | 0.00 | 0.00 | 30 | 1008.5 |
| 20260507032113 | 66 | 340 | 3.0 | 6.0 | 0.00 | 0.00 | 0.00 | 32 | 1008.4 |
| 20260507031610 | 66 | 336 | 3.0 | 3.0 | 0.00 | 0.00 | 0.00 | 34 | 1008.5 |
| 20260507031107 | 67 | 333 | 1.0 | 1.0 | 0.00 | 0.00 | 0.00 | 33 | 1008.4 |
| 20260507030603 | 67 | 335 | 2.0 | 3.0 | 0.00 | 0.00 | 0.00 | 32 | 1008.2 |
| 20260507030101 | 67 | 328 | 4.0 | 7.0 | 0.00 | 0.00 | 0.00 | 33 | 1008.3 |
| 20260507025558 | 66 | 333 | 1.0 | 2.0 | 0.00 | 0.00 | 0.00 | 34 | 1008.4 |
| 20260507025055 | 64 | 262 | 0.0 | 1.0 | 0.00 | 0.00 | 0.00 | 29 | 1008.1 |
| 20260507024553 | 63 | 267 | 0.0 | 0.0 | 0.00 | 0.00 | 0.00 | 30 | 1008.3 |
| 20260507024050 | 62 | 268 | 0.0 | 0.0 | 0.00 | 0.00 | 0.00 | 30 | 1008.3 |
| 20260507023545 | 62 | 271 | 0.0 | 1.0 | 0.00 | 0.00 | 0.00 | 32 | 1008.3 |
| 20260507023043 | 64 | 274 | 0.0 | 0.0 | 0.00 | 0.00 | 0.00 | 35 | 1008.3 |
| 20260507022540 | 65 | 275 | 0.0 | 0.0 | 0.00 | 0.00 | 0.00 | 33 | 1008.2 |
| 20260507022035 | 65 | 284 | 1.0 | 1.0 | 0.00 | 0.00 | 0.00 | 30 | 1008.2 |
| 20260507021531 | 66 | 10 | 0.0 | 0.0 | 0.00 | 0.00 | 0.00 | 28 | 1008.1 |
| 20260507021028 | 66 | 10 | 0.0 | 0.0 | 0.00 | 0.00 | 0.00 | 29 | 1008.2 |
| 20260507020526 | 66 | 10 | 0.0 | 0.0 | 0.00 | 0.00 | 0.00 | 28 | 1008.1 |
| 20260507020022 | 67 | 10 | 0.0 | 0.0 | 0.00 | 0.00 | 0.00 | 27 | 1007.7 |
| 20260507015520 | 67 | 16 | 0.0 | 0.0 | 0.00 | 0.00 | 0.00 | 26 | 1008.0 |
| 20260507015018 | 68 | 17 | 1.0 | 2.0 | 0.00 | 0.00 | 0.00 | 25 | 1008.0 |
| 20260507014514 | 68 | 25 | 1.0 | 2.0 | 0.00 | 0.00 | 0.00 | 25 | 1007.9 |
| 20260507014010 | 69 | 20 | 2.0 | 2.0 | 0.00 | 0.00 | 0.00 | 25 | 1007.9 |
| 20260507013506 | 68 | 21 | 2.0 | 2.0 | 0.00 | 0.00 | 0.00 | 24 | 1008.0 |
| 20260507013004 | 69 | 16 | 2.0 | 2.0 | 0.00 | 0.00 | 0.00 | 24 | 1007.9 |
| 20260507012501 | 69 | 359 | 2.0 | 2.0 | 0.00 | 0.00 | 0.00 | 23 | 1007.9 |
| 20260507011957 | 70 | 8 | 5.0 | 8.0 | 0.00 | 0.00 | 0.00 | 22 | 1008.1 |
| 20260507011454 | 70 | 10 | 5.0 | 7.0 | 0.00 | 0.00 | 0.00 | 21 | 1008.1 |
| 20260507010950 | 70 | 359 | 3.0 | 3.0 | 0.00 | 0.00 | 0.00 | 22 | 1008.0 |
| 20260507010445 | 70 | 7 | 5.0 | 6.0 | 0.00 | 0.00 | 0.00 | 21 | 1008.2 |
| 20260507005942 | 70 | 353 | 3.0 | 5.0 | 0.00 | 0.00 | 0.00 | 21 | 1008.1 |
| 20260507005439 | 71 | 276 | 2.0 | 2.0 | 0.00 | 0.00 | 0.00 | 22 | 1008.2 |
| 20260507004935 | 71 | 273 | 1.0 | 2.0 | 0.00 | 0.00 | 0.00 | 21 | 1008.2 |
| 20260507004432 | 71 | 198 | 0.0 | 0.0 | 0.00 | 0.00 | 0.00 | 21 | 1008.2 |
| 20260507003930 | 72 | 177 | 1.0 | 2.0 | 0.00 | 0.00 | 0.00 | 20 | 1008.3 |
| 20260507003425 | 72 | 155 | 2.0 | 2.0 | 0.00 | 0.00 | 0.00 | 21 | 1008.3 |
| 20260507002920 | 72 | 178 | 4.0 | 5.0 | 0.00 | 0.00 | 0.00 | 21 | 1008.1 |
| 20260507002416 | 72 | 166 | 3.0 | 3.0 | 0.00 | 0.00 | 0.00 | 21 | 1008.3 |
| 20260507001914 | 72 | 137 | 4.0 | 5.0 | 0.00 | 0.00 | 0.00 | 20 | 1008.2 |
| 20260507001410 | 72 | 113 | 3.0 | 5.0 | 0.00 | 0.00 | 0.00 | 21 | 1008.2 |
| 20260507000908 | 73 | 120 | 1.0 | 2.0 | 0.00 | 0.00 | 0.00 | 20 | 1008.4 |
| 20260507000405 | 73 | 137 | 2.0 | 3.0 | 0.00 | 0.00 | 0.00 | 21 | 1008.3 |
| 20260506235859 | 72 | 90 | 3.0 | 3.0 | 0.00 | 0.00 | 0.00 | 21 | 1008.4 |
| 20260506235357 | 71 | 75 | 2.0 | 3.0 | 0.00 | 0.00 | 0.00 | 22 | 1008.3 |
| 20260506234852 | 72 | 64 | 2.0 | 2.0 | 0.00 | 0.00 | 0.00 | 21 | 1008.3 |
| 20260506234350 | 72 | 57 | 3.0 | 6.0 | 0.00 | 0.00 | 0.00 | 21 | 1008.3 |
| 20260506233847 | 72 | 59 | 6.0 | 8.0 | 0.00 | 0.00 | 0.00 | 20 | 1008.3 |
| 20260506233343 | 72 | 26 | 7.0 | 7.0 | 0.00 | 0.00 | 0.00 | 21 | 1008.4 |
| 20260506232841 | 72 | 58 | 10.0 | 13.0 | 0.00 | 0.00 | 0.00 | 20 | 1008.3 |
| 20260506232336 | 72 | 65 | 8.0 | 9.0 | 0.00 | 0.00 | 0.00 | 20 | 1008.5 |
| 20260506231832 | 72 | 82 | 3.0 | 6.0 | 0.00 | 0.00 | 0.00 | 21 | 1008.4 |
| 20260506231331 | 72 | 59 | 6.0 | 7.0 | 0.00 | 0.00 | 0.00 | 20 | 1008.4 |
| 20260506230828 | 71 | 62 | 6.0 | 7.0 | 0.00 | 0.00 | 0.00 | 20 | 1008.6 |
| 20260506230324 | 72 | 76 | 1.0 | 2.0 | 0.00 | 0.00 | 0.00 | 20 | 1008.6 |
| 20260506225820 | 71 | 52 | 5.0 | 8.0 | 0.00 | 0.00 | 0.00 | 21 | 1008.6 |
| 20260506225318 | 71 | 100 | 5.0 | 7.0 | 0.00 | 0.00 | 0.00 | 21 | 1008.8 |
| 20260506224815 | 71 | 139 | 3.0 | 5.0 | 0.00 | 0.00 | 0.00 | 20 | 1008.8 |
| 20260506224312 | 71 | 132 | 5.0 | 7.0 | 0.00 | 0.00 | 0.00 | 20 | 1008.8 |
| 20260506223808 | 72 | 106 | 8.0 | 10.0 | 0.00 | 0.00 | 0.00 | 20 | 1009.0 |
| 20260506223303 | 71 | 67 | 5.0 | 7.0 | 0.00 | 0.00 | 0.00 | 20 | 1009.0 |
| 20260506222800 | 71 | 58 | 3.0 | 5.0 | 0.00 | 0.00 | 0.00 | 21 | 1009.2 |
| 20260506222255 | 71 | 104 | 6.0 | 8.0 | 0.00 | 0.00 | 0.00 | 20 | 1009.2 |
| 20260506221749 | 71 | 206 | 2.0 | 3.0 | 0.00 | 0.00 | 0.00 | 20 | 1009.4 |
| 20260506221246 | 71 | 77 | 5.0 | 6.0 | 0.00 | 0.00 | 0.00 | 20 | 1009.4 |
| 20260506220744 | 72 | 286 | 1.0 | 1.0 | 0.00 | 0.00 | 0.00 | 19 | 1009.6 |
| 20260506220238 | 71 | 149 | 3.0 | 3.0 | 0.00 | 0.00 | 0.00 | 20 | 1009.8 |
| 20260506215735 | 71 | 27 | 3.0 | 3.0 | 0.00 | 0.00 | 0.00 | 20 | 1009.8 |
| 20260506215231 | 70 | 12 | 6.0 | 8.0 | 0.00 | 0.00 | 0.00 | 20 | 1009.8 |
| 20260506214727 | 71 | 14 | 3.0 | 3.0 | 0.00 | 0.00 | 0.00 | 21 | 1009.9 |
| 20260506214225 | 71 | 253 | 2.0 | 3.0 | 0.00 | 0.00 | 0.00 | 20 | 1009.9 |
| 20260506213723 | 70 | 288 | 3.0 | 5.0 | 0.00 | 0.00 | 0.00 | 20 | 1010.2 |
| 20260506213220 | 70 | 352 | 4.0 | 5.0 | 0.00 | 0.00 | 0.00 | 20 | 1010.4 |
| 20260506212717 | 70 | 16 | 3.0 | 3.0 | 0.00 | 0.00 | 0.00 | 20 | 1010.3 |
| 20260506212212 | 71 | 347 | 6.0 | 7.0 | 0.00 | 0.00 | 0.00 | 20 | 1010.5 |
| 20260506211708 | 71 | 297 | 5.0 | 5.0 | 0.00 | 0.00 | 0.00 | 20 | 1010.5 |
| 20260506211204 | 72 | 249 | 3.0 | 3.0 | 0.00 | 0.00 | 0.00 | 20 | 1010.7 |
| 20260506210701 | 69 | 315 | 2.0 | 3.0 | 0.00 | 0.00 | 0.00 | 22 | 1010.7 |
| 20260506210158 | 69 | 0 | 3.0 | 3.0 | 0.00 | 0.00 | 0.00 | 21 | 1010.7 |
| 20260506205655 | 69 | 251 | 1.0 | 1.0 | 0.00 | 0.00 | 0.00 | 21 | 1010.9 |
| 20260506205150 | 69 | 309 | 4.0 | 6.0 | 0.00 | 0.00 | 0.00 | 21 | 1010.9 |
| 20260506204648 | 71 | 226 | 1.0 | 2.0 | 0.00 | 0.00 | 0.00 | 21 | 1010.8 |
| 20260506204144 | 70 | 341 | 3.0 | 3.0 | 0.00 | 0.00 | 0.00 | 21 | 1011.0 |
| 20260506203643 | 70 | 314 | 3.0 | 3.0 | 0.00 | 0.00 | 0.00 | 22 | 1011.0 |
| 20260506203139 | 69 | 282 | 3.0 | 5.0 | 0.00 | 0.00 | 0.00 | 22 | 1011.0 |
| 20260506202638 | 69 | 322 | 4.0 | 7.0 | 0.00 | 0.00 | 0.00 | 22 | 1011.1 |
| 20260506202133 | 69 | 248 | 4.0 | 5.0 | 0.00 | 0.00 | 0.00 | 21 | 1011.3 |
| 20260506201630 | 68 | 333 | 3.0 | 3.0 | 0.00 | 0.00 | 0.00 | 22 | 1011.3 |
| 20260506201127 | 68 | 12 | 5.0 | 7.0 | 0.00 | 0.00 | 0.00 | 23 | 1011.5 |
| 20260506200623 | 69 | 286 | 2.0 | 3.0 | 0.00 | 0.00 | 0.00 | 22 | 1011.5 |
| 20260506200120 | 68 | 1 | 4.0 | 6.0 | 0.00 | 0.00 | 0.00 | 22 | 1011.7 |
| 20260506195617 | 68 | 329 | 3.0 | 5.0 | 0.00 | 0.00 | 0.00 | 23 | 1011.9 |
| 20260506195113 | 66 | 3 | 4.0 | 5.0 | 0.00 | 0.00 | 0.00 | 24 | 1011.7 |
| 20260506194611 | 67 | 309 | 3.0 | 3.0 | 0.00 | 0.00 | 0.00 | 22 | 1011.9 |
| 20260506194107 | 66 | 288 | 5.0 | 6.0 | 0.00 | 0.00 | 0.00 | 24 | 1011.9 |
| 20260506193605 | 66 | 281 | 5.0 | 7.0 | 0.00 | 0.00 | 0.00 | 24 | 1012.0 |